Previsão horária em 8 Marta

Hoje, 17 Abril, Sábado

Tempo Temperatura Precipitação Vento Pressão Humidade
00:00 +10°C° 0.4 mm 2 m/s 743 mmHg 83%
01:00 +9°C° 0.1 mm 2 m/s 743 mmHg 84%
02:00 +10°C° 0.1 mm 1 m/s 744 mmHg 85%
03:00 +10°C° 0.1 mm 1 m/s 744 mmHg 86%
04:00 +8°C° 0 mm 2 m/s 744 mmHg 88%
05:00 +8°C° 0 mm 2 m/s 744 mmHg 91%
06:00 +8°C° 0 mm 2 m/s 743 mmHg 93%
07:00 +9°C° 0.1 mm 3 m/s 743 mmHg 90%
08:00 +10°C° 0.1 mm 4 m/s 743 mmHg 87%
09:00 +10°C° 0.1 mm 5 m/s 743 mmHg 84%
10:00 +10°C° 0.7 mm 5 m/s 743 mmHg 83%
11:00 +11°C° 0.7 mm 6 m/s 743 mmHg 82%
12:00 +11°C° 0.7 mm 6 m/s 743 mmHg 81%
13:00 +12°C° 1 mm 5 m/s 743 mmHg 81%
14:00 +10°C° 1 mm 5 m/s 743 mmHg 81%
15:00 +10°C° 1 mm 5 m/s 743 mmHg 81%
16:00 +10°C° 0.8 mm 4 m/s 743 mmHg 83%
17:00 +8°C° 0.8 mm 4 m/s 743 mmHg 86%
18:00 +9°C° 0.8 mm 3 m/s 743 mmHg 88%
19:00 +8°C° 0.6 mm 3 m/s 743 mmHg 89%
20:00 +8°C° 0.6 mm 2 m/s 743 mmHg 89%
21:00 +8°C° 0.6 mm 2 m/s 743 mmHg 90%
22:00 +7°C° 0.2 mm 2 m/s 743 mmHg 90%
23:00 +7°C° 0.2 mm 2 m/s 743 mmHg 90%

Amanhã, 18 Abril, Domingo

Tempo Temperatura Precipitação Vento Pressão Humidade
00:00 +7°C° 0.2 mm 1 m/s 743 mmHg 90%
01:00 +7°C° 0 mm 1 m/s 743 mmHg 90%
02:00 +7°C° 0 mm 1 m/s 743 mmHg 90%
03:00 +7°C° 0 mm 1 m/s 744 mmHg 90%
04:00 +7°C° 0 mm 1 m/s 744 mmHg 90%
05:00 +6°C° 0 mm 1 m/s 744 mmHg 90%
06:00 +6°C° 0 mm 1 m/s 744 mmHg 90%
07:00 +7°C° 0 mm 1 m/s 744 mmHg 86%
08:00 +8°C° 0 mm 1 m/s 744 mmHg 81%
09:00 +9°C° 0 mm 1 m/s 744 mmHg 77%
10:00 +8°C° 0.3 mm 2 m/s 744 mmHg 77%
11:00 +8°C° 0.3 mm 2 m/s 744 mmHg 77%
12:00 +8°C° 0.3 mm 2 m/s 744 mmHg 77%
13:00 +8°C° 0.3 mm 2 m/s 744 mmHg 76%
14:00 +8°C° 0.3 mm 2 m/s 745 mmHg 76%
15:00 +9°C° 0.3 mm 2 m/s 745 mmHg 75%
16:00 +9°C° 0.2 mm 2 m/s 745 mmHg 74%
17:00 +9°C° 0.2 mm 2 m/s 745 mmHg 73%
18:00 +9°C° 0.2 mm 2 m/s 745 mmHg 72%
19:00 +9°C° 0.1 mm 2 m/s 745 mmHg 77%
20:00 +8°C° 0.1 mm 3 m/s 745 mmHg 82%
21:00 +7°C° 0.1 mm 3 m/s 745 mmHg 87%
22:00 +6°C° 0.1 mm 4 m/s 745 mmHg 89%
23:00 +6°C° 0.1 mm 4 m/s 745 mmHg 90%

Depois de amanhã, 19 Abril, Segunda-feira

Tempo Temperatura Precipitação Vento Pressão Humidade
00:00 +5°C° 0.1 mm 4 m/s 745 mmHg 92%
01:00 +5°C° 0 mm 4 m/s 745 mmHg 93%
02:00 +5°C° 0 mm 4 m/s 745 mmHg 94%
03:00 +5°C° 0 mm 3 m/s 745 mmHg 95%
04:00 +5°C° 0.1 mm 4 m/s 745 mmHg 95%
05:00 +5°C° 0.1 mm 4 m/s 745 mmHg 95%
06:00 +5°C° 0.1 mm 4 m/s 745 mmHg 95%
07:00 +5°C° 0 mm 4 m/s 745 mmHg 92%
08:00 +6°C° 0 mm 5 m/s 745 mmHg 90%
09:00 +6°C° 0 mm 5 m/s 745 mmHg 87%
10:00 +7°C° 0.1 mm 5 m/s 745 mmHg 83%
11:00 +8°C° 0.1 mm 5 m/s 745 mmHg 78%
12:00 +8°C° 0.1 mm 5 m/s 745 mmHg 73%
13:00 +8°C° 0.3 mm 6 m/s 745 mmHg 75%
14:00 +8°C° 0.3 mm 6 m/s 745 mmHg 76%
15:00 +8°C° 0.3 mm 6 m/s 745 mmHg 78%
16:00 +8°C° 0.2 mm 6 m/s 745 mmHg 80%
17:00 +6°C° 0.2 mm 7 m/s 745 mmHg 82%
18:00 +6°C° 0.2 mm 7 m/s 744 mmHg 85%
19:00 +5°C° 0.3 mm 7 m/s 744 mmHg 86%
20:00 +5°C° 0.3 mm 7 m/s 744 mmHg 87%
21:00 +5°C° 0.3 mm 7 m/s 744 mmHg 89%
22:00 +4°C° 0 mm 7 m/s 744 mmHg 88%
23:00 +4°C° 0 mm 7 m/s 744 mmHg 88%

20 Abril, Terça-feira

Tempo Temperatura Precipitação Vento Pressão Humidade
00:00 +4°C° 0 mm 7 m/s 744 mmHg 88%
01:00 +4°C° 0.1 mm 7 m/s 743 mmHg 88%
02:00 +3°C° 0.1 mm 7 m/s 743 mmHg 88%
03:00 +3°C° 0.1 mm 7 m/s 743 mmHg 89%
04:00 +3°C° 0.4 mm 7 m/s 742 mmHg 90%
05:00 +3°C° 0.4 mm 7 m/s 742 mmHg 91%
06:00 +3°C° 0.4 mm 7 m/s 742 mmHg 92%
07:00 +3°C° 0.3 mm 7 m/s 741 mmHg 92%
08:00 +3°C° 0.3 mm 7 m/s 741 mmHg 92%
09:00 +2°C° 0.3 mm 8 m/s 740 mmHg 93%
10:00 +2°C° 0.3 mm 8 m/s 740 mmHg 92%
11:00 +2°C° 0.3 mm 8 m/s 739 mmHg 92%
12:00 +2°C° 0.3 mm 8 m/s 739 mmHg 92%
13:00 +2°C° 0.6 mm 9 m/s 738 mmHg 92%
14:00 +3°C° 0.6 mm 9 m/s 737 mmHg 92%
15:00 +3°C° 0.6 mm 10 m/s 736 mmHg 92%
16:00 +3°C° 2.7 mm 10 m/s 735 mmHg 92%
17:00 +3°C° 2.7 mm 11 m/s 734 mmHg 92%
18:00 +3°C° 2.7 mm 12 m/s 732 mmHg 92%
19:00 +4°C° 1.7 mm 12 m/s 732 mmHg 92%
20:00 +4°C° 1.7 mm 12 m/s 731 mmHg 92%
21:00 +5°C° 1.7 mm 12 m/s 730 mmHg 91%
22:00 +6°C° 0.3 mm 11 m/s 730 mmHg 92%
23:00 +7°C° 0.3 mm 9 m/s 730 mmHg 92%

21 Abril, Quarta-feira

Tempo Temperatura Precipitação Vento Pressão Humidade
00:00 +7°C° 0.3 mm 8 m/s 729 mmHg 93%
01:00 +7°C° 0.6 mm 8 m/s 729 mmHg 90%
02:00 +7°C° 0.6 mm 8 m/s 729 mmHg 88%
03:00 +7°C° 0.6 mm 8 m/s 729 mmHg 86%
04:00 +6°C° 0.1 mm 8 m/s 729 mmHg 86%
05:00 +6°C° 0.1 mm 8 m/s 729 mmHg 86%
06:00 +6°C° 0.1 mm 8 m/s 729 mmHg 86%
07:00 +4°C° 0.2 mm 8 m/s 730 mmHg 89%
08:00 +2°C° 0.2 mm 8 m/s 731 mmHg 92%
09:00 +2°C° 0.2 mm 7 m/s 732 mmHg 94%
10:00 +1°C° 0 mm 8 m/s 733 mmHg 90%
11:00 +2°C° 0 mm 8 m/s 733 mmHg 86%
12:00 +2°C° 0 mm 8 m/s 734 mmHg 81%
13:00 +4°C° 0 mm 8 m/s 735 mmHg 79%
14:00 +5°C° 0 mm 8 m/s 736 mmHg 76%
15:00 +6°C° 0 mm 8 m/s 736 mmHg 74%
16:00 +6°C° 0 mm 8 m/s 737 mmHg 73%
17:00 +7°C° 0 mm 8 m/s 737 mmHg 72%
18:00 +8°C° 0 mm 7 m/s 738 mmHg 71%
19:00 +6°C° 0 mm 7 m/s 738 mmHg 75%
20:00 +5°C° 0 mm 6 m/s 739 mmHg 78%
21:00 +6°C° 0 mm 5 m/s 740 mmHg 81%
22:00 +5°C° 0 mm 5 m/s 740 mmHg 82%
23:00 +5°C° 0 mm 4 m/s 740 mmHg 84%

22 Abril, Quinta-feira

Tempo Temperatura Precipitação Vento Pressão Humidade
00:00 +5°C° 0 mm 4 m/s 741 mmHg 86%
01:00 +4°C° 0 mm 4 m/s 741 mmHg 87%
02:00 +4°C° 0 mm 4 m/s 741 mmHg 89%
03:00 +3°C° 0 mm 4 m/s 741 mmHg 91%
04:00 +3°C° 0 mm 4 m/s 742 mmHg 91%
05:00 +3°C° 0 mm 4 m/s 742 mmHg 91%
06:00 +3°C° 0 mm 4 m/s 742 mmHg 91%
07:00 +4°C° 0 mm 4 m/s 743 mmHg 86%
08:00 +6°C° 0 mm 4 m/s 743 mmHg 82%
09:00 +7°C° 0 mm 5 m/s 744 mmHg 77%
10:00 +9°C° 0.1 mm 5 m/s 744 mmHg 71%
11:00 +10°C° 0.1 mm 5 m/s 744 mmHg 65%
12:00 +11°C° 0.1 mm 6 m/s 745 mmHg 59%
13:00 +13°C° 0.2 mm 6 m/s 745 mmHg 57%
14:00 +13°C° 0.2 mm 6 m/s 745 mmHg 55%
15:00 +14°C° 0.2 mm 6 m/s 745 mmHg 52%
16:00 +13°C° 0.3 mm 5 m/s 745 mmHg 56%
17:00 +13°C° 0.3 mm 5 m/s 745 mmHg 60%
18:00 +12°C° 0.3 mm 4 m/s 745 mmHg 64%
19:00 +11°C° 0 mm 4 m/s 746 mmHg 69%
20:00 +10°C° 0.1 mm 3 m/s 746 mmHg 74%
21:00 +9°C° 0.1 mm 2 m/s 746 mmHg 80%
22:00 +9°C° 0.1 mm 2 m/s 747 mmHg 82%
23:00 +8°C° 0.1 mm 2 m/s 747 mmHg 84%
Mostrar mais

Necessitamos do seu Consentimento

A Meteoprog e os seus Fornecedores de Serviços podem armazenar e aceder a dados pessoais como cookies, identificadores do dispositivo ou outras tecnologias semelhantes existentes no seu dispositivo e processar estes dados para personalizar conteúdos e anúncios, assim como funcionalidades nas redes sociais e análise de tráfego.

  • Armazenar e/ou aceder a informações no seu dispositivo

    Os cookies, identificadores do dispositivo ou outras informações podem ser armazenados ou acedidos no seu dispositivo, para os fins acima indicados.

  • Anúncios e conteúdos personalizados, medição de anúncios e conteúdos, dados sobre o público-alvo e desenvolvimento de produtos

    Os anúncios e os conteúdos podem ser personalizados com base num perfil. Podem ser adicionados dados adicionais para uma maior personalização dos anúncios e dos conteúdos. A eficácia dos anúncios e dos conteúdos pode ser medida. Podem ser obtidas informações sobre o público que visualizou os anúncios e os conteúdos. Estes dados podem ser usados para desenvolver ou melhorar sistemas, softwares ou a experiência do utilizador.

Ao clicar em "Eu concordo”, permitirá o uso de cookies, identificadores do dispositivo e web beacons mencionados ou outras tecnologias semelhantes. As configurações do navegador do seu dispositivo podem ser alteradas.

Para certos fins, podem ser invocados interesses legítimos ao invés de consentimento. Pode ler mais informação sobre este assunto na nossa Política de Privacidade e Cookies.